Regional Weather Roundup
Issued by NWS

Home | Current Version | Previous Version | Text Only | Print | Product List | Glossary Off
Versions: 1 2 3 4 5 6 7 8 9 10 11 12 13 14 15 16 17 18 19 20 21 22 23 24 25 26 27 28 29 30 31 32 33 34 35 36 37 38 39 40 41 42 43 44 45 46 47 48 49 50

000
ASUS45 KPSR 031310
RWRAZ

ARIZONA REGIONAL HOURLY WEATHER ROUNDUP
NATIONAL WEATHER SERVICE PHOENIX AZ
600 AM MST TUE MAR 03 2015

NOTE: FAIR INDICATES FEW OR NO CLOUDS BELOW 12,000 FEET WITH NO
SIGNIFICANT WEATHER AND/OR OBSTRUCTIONS TO VISIBILITY.

AZZ001>003-036-031400-
NORTHWEST ARIZONA

CITY           SKY/WX    TMP DP  RH WIND       PRES   REMARKS
BULLHEAD CITY  CLEAR     46  41  81 CALM      29.95S
KINGMAN        CLEAR     30  27  88 S6        29.92S WCI  24
$$

AZZ004>008-015-016-018-031400-
NORTH CENTRAL ARIZONA

CITY           SKY/WX    TMP DP  RH WIND       PRES   REMARKS
GRAND CANYON   FOG       23  22  96 NE5       29.90F VSB 1/2 WCI  17
PRESCOTT       LGT RAIN  35  32  88 NW5       29.91S WCI  31
FLAGSTAFF      NOT AVBL
PAYSON         CLOUDY    36  34  93 CALM      29.92F
$$

AZZ009>014-017-031400-
NORTHEAST ARIZONA

CITY           SKY/WX    TMP DP  RH WIND       PRES   REMARKS
WINSLOW        PTCLDY    34  31  88 SE5       29.91F WCI  30
SAINT JOHNS    CLOUDY   N/A N/A N/A CALM      29.92S
WINDOW ROCK    CLOUDY    31  26  82 SW5       29.91F WCI  26
SHOW LOW       CLOUDY    28  27  93 E3        29.94S
$$

AZZ023-031400-
GREATER PHOENIX AREA

CITY           SKY/WX    TMP DP  RH WIND       PRES   REMARKS
PHOENIX        MOCLDY    50  47  89 CALM      29.91R
BUCKEYE        MOCLDY    45  45 100 N6        29.93S
GLENDALE       PTCLDY    46  46 100 VRB3      29.94
LUKE AFB       MOCLDY    45  44  96 N3        29.91S
DEER VALLEY    PTCLDY    48  44  86 CALM      29.91S
SCOTTSDALE     CLEAR     48  45  89 W3        29.92S
MESA-FALCON    MOCLDY    46  45  93 N7        29.90
MESA-GATEWAY   PTCLDY    43  43 100 SE3       29.93S
CHANDLER       PTCLDY    43  43 100 E6        29.92
$$

AZZ027-028-031400-
SOUTHWEST MARICOPA COUNTY AND PINAL COUNTY

CITY           SKY/WX    TMP DP  RH WIND       PRES   REMARKS
CASA GRANDE    CLEAR     43  37  81 S5        29.92R
GILA BEND      FAIR      48  48 100 CALM      29.92R FOG
$$

AZZ503-504-507>509-031400-
SOUTHEAST ARIZONA

CITY           SKY/WX    TMP DP  RH WIND       PRES   REMARKS
TUCSON         CLEAR     47  44  90 CALM      29.93R
DAVIS-MONTHAN  CLEAR     45  43  94 SW3       29.91R
RYAN FIELD       N/A     48  48 100 CALM      29.93
NOGALES        MOCLDY    46  42  86 SW5       29.92R
SIERRA VISTA   MOCLDY    45  43  93 N8        29.88F
DOUGLAS        LGT RAIN  45  43  93 N6        29.91R
SAFFORD        PTCLDY    43  41  93 E6        29.90S
$$

AZZ020-021-025-026-031-031400-
SOUTHWEST ARIZONA

CITY           SKY/WX    TMP DP  RH WIND       PRES   REMARKS
YUMA           PTCLDY    51  47  86 NE7       29.92S
$$

CAZ031-033-041-043-047-048-061-031400-
SOUTHERN CALIFORNIA

CITY           SKY/WX    TMP DP  RH WIND       PRES   REMARKS
DOWNTOWN L.A.  CLEAR     49  42  77 N3        29.93R
L.A. AIRPORT   PTCLDY    49  43  80 N6        29.93S
SAN DIEGO      MOCLDY    52  42  69 VRB3      29.93S
BURBANK        CLEAR     46  37  71 NW6       29.92S
ONTARIO        PTCLDY    45  37  73 CALM      29.92F
RIVERSIDE      CLEAR     40  38  93 E5        29.93S
PALM SPRINGS   CLEAR     47  37  68 NW3       29.93S
EL CENTRO NAS  PTCLDY    46  40  79 CALM      29.91F
IMPERIAL       PTCLDY    45  41  86 CALM      29.91S
BLYTHE         CLEAR     44  44 100 N6        29.92S
NEEDLES        CLEAR     46  41  82 NW5       29.93S
$$

NVZ020-UTZ003-031400-
SOUTHERN NEVADA-UTAH

CITY           SKY/WX    TMP DP  RH WIND       PRES   REMARKS
LAS VEGAS      CLEAR     42  35  76 SW7       29.89R
SALT LAKE CITY CLOUDY    36  31  82 SW6       29.78F WCI  31
$$

NMZ009-TXZ055-031400-
NEW MEXICO-WEST TEXAS

CITY           SKY/WX    TMP DP  RH WIND       PRES   REMARKS
ALBUQUERQUE    CLOUDY    40  32  73 CALM      29.93F
EL PASO        CLOUDY    54  46  74 CALM      29.87F
$$


........................KEY........................
SKY/WX - SKY CONDITION/WEATHER
TMP    - TEMPERATURE IN FAHRENHEIT
DP     - DEW POINT IN FAHRENHEIT
RH     - RELATIVE HUMIDITY IN PERCENT
WIND   - DIRECTION AND SPEED IN MILES PER HOUR (MPH)
VRB    - VARIABLE WIND DIRECTION
PRES   - MEAN SEA LEVEL PRESSURE IN INCHES OF MERCURY
         F - FALLING PRESSURE   R - RISING PRESSURE
         S - STEADY PRESSURE
VSB    - VISIBILITY IN MILES
HX     - HEAT INDEX IN FAHRENHEIT
WCI    - WIND CHILL INDEX IN FAHRENHEIT
TC     - TEMPERATURE IN CELSIUS WHICH IS ALSO KNOWN AS
         TEMPERATURE IN CENTIGRADE
AFB    - AIR FORCE BASE
         LUKE AFB IS LUKE AIR FORCE BASE
         DAVIS-MONTHAN IS DAVIS-MONTHAN AIR FORCE BASE
NAS    - NAVAL AIR STATION
         EL CENTRO NAS IS EL CENTRO NAVAL AIR STATION
N/A    - NOT AVAILABLE


USA.gov is the U.S. government's official web portal to all federal, state and local government web resources and services.